[Iaude] MPEC K138: 2024 KB1 [a=2.18,e=0.56,i=8.5,H=28.2]

mpec at cfa.harvard.edu mpec at cfa.harvard.edu
Thu May 30 19:07:48 EDT 2024


M.P.E.C. 2024-K138                                 Issued 2024 May 30, 23:06 UT

     The Minor Planet Electronic Circulars contain information on unusual
         minor planets, routine data on comets and natural satellites,
         and occasional editorial announcements.  They are published
    on behalf of Division F of the International Astronomical Union by the
          Minor Planet Center, Smithsonian Astrophysical Observatory,
                          Cambridge, MA 02138, U.S.A.
			  
             Prepared using the Tamkin Foundation Computer Network

                              MPC at CFA.HARVARD.EDU
            URL https://www.minorplanetcenter.net/    ISSN 1523-6714

                                    2024 KB1                                    


Observations:
     K24K01B  C2024 05 29.27375214 16 45.736+22 48 40.37         20.68GVEK138F52
     K24K01B  C2024 05 29.28684914 16 38.492+22 50 46.01         20.77GVEK138F52
     K24K01B*1C2024 05 30.24912814 07 07.914+26 31 15.02         20.24GVEK138G96
     K24K01B 1C2024 05 30.25431114 07 01.736+26 33 01.33         20.72GVEK138G96
     K24K01B 1C2024 05 30.25950214 06 55.609+26 34 45.88         21.30GVEK138G96
     K24K01B 1C2024 05 30.26469314 06 49.392+26 36 31.64         20.47GVEK138G96
     K24K01B KC2024 05 30.33474314 05 23.899+27 01 05.52         20.32GVEK138I52
     K24K01B KC2024 05 30.33574714 05 22.643+27 01 26.33         19.69GVEK138I52
     K24K01B KC2024 05 30.33675914 05 21.487+27 01 49.55         19.67GVEK138I52
     K24K01B KC2024 05 30.33777214 05 20.166+27 02 10.14         20.71GVEK138I52
     K24K01B KC2024 05 30.33877714 05 18.946+27 02 31.99         20.04GVEK138I52
     K24K01B KC2024 05 30.33978614 05 17.696+27 02 53.77         20.45GVEK138I52
     K24K01B KC2024 05 30.39704614 04 07.626+27 23 54.56         20.86GVEK138I52
     K24K01B KC2024 05 30.39805114 04 06.384+27 24 16.92         20.13GVEK138I52
     K24K01B KC2024 05 30.39905414 04 05.192+27 24 39.49         20.93GVEK138I52
     K24K01B KC2024 05 30.40007114 04 03.943+27 25 02.82         20.07GVEK138I52
     K24K01B KC2024 05 30.40108514 04 02.737+27 25 25.82         20.67GVEK138I52
     K24K01B KC2024 05 30.40209814 04 01.499+27 25 48.47         20.31GVEK138I52
     K24K01B KC2024 05 30.42995714 03 28.413+27 35 49.93         19.9 GVEK138H01
     K24K01B KC2024 05 30.43526914 03 22.189+27 37 53.69         20.3 GVEK138H01
     K24K01B KB2024 05 30.87120613 52 59.15 +31 49 13.1          20.1 GXEK138I93
     K24K01B KB2024 05 30.87564113 52 47.57 +31 52 37.7          19.7 GXEK138I93
     K24K01B KB2024 05 30.87974813 52 36.79 +31 55 48.2          19.7 GXEK138I93

Observer details:
F52 Pan-STARRS 2, Haleakala.  Observers J. Herman, T. Lowe, P. Minguez, A.
    Schultz, I. Smith.  Measurers K. Chambers, T. de Boer, J. Fairlamb, H.
    Gao, M. Huber, C.-C. Lin, E. Magnier, Y. Ramanjooloo, R. Wainscoat, R.
    Weryk.  1.8-m Ritchey-Chretien + CCD.
G96 Mt. Lemmon Survey.  Observer T. Beuden.  Measurers T. Beuden, V. F.
    Carvajal, D. Fay, J. B. Fazekas, D. C. Fuls, A. R. Gibbs, A. D. Grauer, H.
    Groeller, J. K. Hogan, R. A. Kowalski, S. M. Larson, G. J. Leonard, D.
    Rankin, R. L. Seaman, F. C. Shelly, K. W. Wierzchos.  1.5-m reflector +
    10K CCD.
H01 Magdalena Ridge Observatory, Socorro.  Observers W. H. Ryan, E. V. Ryan.
    Measurer W. H. Ryan.  2.4-m f/8.9 Ritchey-Chretien + CCD.
I52 Steward Observatory, Mt. Lemmon Station.  Observer V. F. Carvajal.
    Measurers T. Beuden, V. F. Carvajal, D. Fay, J. B. Fazekas, D. C. Fuls, A.
    R. Gibbs, A. D. Grauer, H. Groeller, J. K. Hogan, R. A. Kowalski, S. M.
    Larson, G. J. Leonard, D. Rankin, R. L. Seaman, F. C. Shelly, K. W.
    Wierzchos.  1.0-m prime focus + CCD.
I93 St Pardon de Conques.  Observer F. Losse.  0.40-m f/3.7 reflector + CMO.

Orbital elements:
2024 KB1                                                 Earth MOID = 0.0023 AU
Epoch 2024 Mar. 31.0 TT = JDT 2460400.5                 MPC                     
M 333.46985              (2000.0)            P               Q                  
n   0.30624873     Peri.  210.46709     +0.19729781     +0.97033775             
a   2.1798161      Node    71.21921     -0.86706189     +0.23921887             
e   0.5594827      Incl.    8.48581     -0.45746831     -0.03491402             
P   3.22           H   28.25          G   0.15           U   7                  
Residuals in seconds of arc
240529 F52  0.1-  0.0     240530 I52  1.0+  1.0+    240530 I52  0.3+  0.3+
240529 F52  0.2+  0.0     240530 I52  0.0   0.2-    240530 I52  0.2+  0.0
240530 G96 (1.1-  1.5+)   240530 I52  0.2+  0.0     240530 H01  0.2-  0.2+
240530 G96 (1.0-  1.7+)   240530 I52  0.0   0.0     240530 H01  0.1-  0.1+
240530 G96  0.2+  0.3-    240530 I52  0.1+  0.2+    240530 I93  0.1+  0.4-
240530 G96  0.4+  1.4-    240530 I52  0.2-  0.1-    240530 I93  0.0   0.2-
240530 I52  0.1+  0.2+    240530 I52  0.2+  0.1-    240530 I93  0.2+  0.2+
240530 I52  0.2-  0.5-    240530 I52  0.0   0.2+

Ephemeris:
2024 KB1                 a,e,i = 2.18, 0.56, 8                   q = 0.9602
Date    TT    R. A. (2000) Decl.     Delta      r    Elong.  Phase     V
2024 04 30    14 36 28.3 +13 17 47   0.2108  1.1974   151.9    23.3    26.4
...
2024 05 15    14 32 02.1 +16 02 56   0.1086  1.0990   142.5    34.1    25.1
...
2024 05 23    14 28 14.0 +17 42 56   0.05734 1.0542   135.6    42.2    23.8
...
2024 05 29    14 18 01.2 +22 10 43   0.01937 1.0252   126.5    52.6    21.7
2024 05 30    14 10 34.0 +25 15 48   0.01311 1.0208   122.3    57.0    20.9
2024 05 31    13 47 34.5 +33 40 59   0.0069801.0165   112.0    67.6    19.9
...
2024 06 06    02 39 19.2 -12 40 19   0.03160 0.9942    48.8   129.8    26.4
...
2024 06 14    02 35 45.6 -14 44 03   0.08218 0.9734    57.1   118.9    27.5
...
2024 06 29    02 40 50.6 -14 09 07   0.1754  0.9642    67.8   102.5    28.1

A. U. Tomatic                (C) Copyright 2024 MPC           M.P.E.C. 2024-K138





More information about the Iaude mailing list